Location: Brusselsch Zeekanaal
(50.8667°N, 4.3667°E)
Time: 01:32:40
(UTC+00:00)

ARIANE 5 R/B - Pass Details

Date: 08 November 2025
Orbit: 747 x 792 km, 98.8° (Epoch: 13 December)

Event Time Altitude Azimuth Distance (km) Brightness Sun altitude
Rises 05:42:56 0° 21° (NNE) 3,220 5.8 -10.3°
Reaches altitude 10° 05:45:23 10° 29° (NNE) 2,295 5.2 -9.9°
Maximum altitude 05:50:06 39° 98° (E) 1,144 4.2 -9.2°
Drops below altitude 10° 05:54:49 10° 166° (SSE) 2,305 5.4 -8.5°
Sets 05:57:17 0° 174° (S) 3,234 6.1 -8.1°
